User: anonymous   Login
Location: Aix-en-Ergny
(50.5839°N, 1.9996°E)
Time: 00:21:42
(UTC+00:00)
Language:

Cosmos 1908 - Orbit

View from above orbital plane
View from above orbital plane
View from above satellite
View from above satellite

Ground track
Ground track

The orbit data is extracted from the following two-line orbital elements,

1 18748U 88001A   19346.82211787  .00000177  00000-0  77920-5 0  9999
2 18748  82.4733 243.7165 0013432 355.9277   4.1843 15.14762900743274
Epoch (UTC): 12 December 2019 19:43:50
Eccentricity: 0.0013432
inclination: 82.4733°
perigee height: 512 km
apogee height: 531 km
right ascension of ascending node: 243.7165°
argument of perigee: 355.9277°
revolutions per day: 15.14762900
mean anomaly at epoch: 4.1843°
orbit number at epoch: 74327

The dashed part of the orbit path shows where the satellite is in the earth's shadow,  

DLR